• In Austria
  • List of Countries
  • For 7 days
  • Water Temperature
  • Satellite Maps
  • Weather Map
  • News
  • Weather Widgets
  • user-avatar
    Login

    Hourly Weather Chyzhivka

    Today, 21 June, Thursday

    Time Temperature Precipitation Wind Pressure Humidity
    00:00 +17°C° 0 mm 2 mps 749 mmHg 81%
    01:00 +17°C° 0 mm 2 mps 750 mmHg 83%
    02:00 +16°C° 0 mm 1 mps 749 mmHg 85%
    03:00 +18°C° 0 mm 1 mps 749 mmHg 85%
    04:00 +18°C° 0 mm 1 mps 750 mmHg 85%
    05:00 +18°C° 0 mm 1 mps 750 mmHg 85%
    06:00 +20°C° 0 mm 1 mps 750 mmHg 79%
    07:00 +22°C° 0 mm 1 mps 750 mmHg 72%
    08:00 +24°C° 0 mm 1 mps 750 mmHg 65%
    09:00 +25°C° 0 mm 1 mps 749 mmHg 61%
    10:00 +26°C° 0 mm 2 mps 749 mmHg 56%
    11:00 +27°C° 0 mm 2 mps 749 mmHg 51%
    12:00 +28°C° 0 mm 2 mps 748 mmHg 49%
    13:00 +28°C° 0 mm 2 mps 748 mmHg 47%
    14:00 +29°C° 0 mm 2 mps 747 mmHg 44%
    15:00 +29°C° 0 mm 2 mps 747 mmHg 46%
    16:00 +29°C° 0 mm 2 mps 747 mmHg 48%
    17:00 +29°C° 0 mm 2 mps 746 mmHg 50%
    18:00 +28°C° 0 mm 2 mps 746 mmHg 58%
    19:00 +26°C° 0 mm 3 mps 746 mmHg 65%
    20:00 +24°C° 0 mm 3 mps 745 mmHg 72%
    21:00 +22°C° 0 mm 3 mps 745 mmHg 73%
    22:00 +22°C° 0 mm 3 mps 745 mmHg 74%
    23:00 +21°C° 0 mm 4 mps 745 mmHg 75%

    Tomorrow, 22 June, Friday

    Time Temperature Precipitation Wind Pressure Humidity
    00:00 +21°C° 0 mm 4 mps 745 mmHg 77%
    01:00 +21°C° 0 mm 4 mps 745 mmHg 78%
    02:00 +20°C° 0 mm 4 mps 744 mmHg 80%
    03:00 +20°C° 0 mm 4 mps 744 mmHg 81%
    04:00 +20°C° 0 mm 4 mps 744 mmHg 81%
    05:00 +21°C° 0 mm 4 mps 743 mmHg 82%
    06:00 +22°C° 0 mm 5 mps 743 mmHg 78%
    07:00 +23°C° 0 mm 5 mps 743 mmHg 74%
    08:00 +26°C° 0 mm 6 mps 743 mmHg 70%
    09:00 +26°C° 0.9 mm 6 mps 743 mmHg 71%
    10:00 +27°C° 0.9 mm 6 mps 743 mmHg 72%
    11:00 +27°C° 0.9 mm 6 mps 744 mmHg 73%
    12:00 +24°C° 1.2 mm 6 mps 744 mmHg 77%
    13:00 +22°C° 1.2 mm 6 mps 744 mmHg 80%
    14:00 +21°C° 1.2 mm 6 mps 744 mmHg 84%
    15:00 +20°C° 0.3 mm 5 mps 744 mmHg 81%
    16:00 +19°C° 0.3 mm 5 mps 744 mmHg 79%
    17:00 +18°C° 0.3 mm 4 mps 745 mmHg 77%
    18:00 +17°C° 0 mm 4 mps 745 mmHg 78%
    19:00 +16°C° 0 mm 3 mps 745 mmHg 80%
    20:00 +16°C° 0 mm 3 mps 745 mmHg 82%
    21:00 +14°C° 0 mm 3 mps 745 mmHg 82%
    22:00 +14°C° 0 mm 3 mps 745 mmHg 83%
    23:00 +13°C° 0 mm 3 mps 745 mmHg 84%

    Day after tomorrow, 23 June, Saturday

    Time Temperature Precipitation Wind Pressure Humidity
    00:00 +13°C° 0.3 mm 3 mps 745 mmHg 86%
    01:00 +13°C° 0.3 mm 3 mps 745 mmHg 88%
    02:00 +13°C° 0.3 mm 3 mps 745 mmHg 90%
    03:00 +13°C° 0.4 mm 3 mps 745 mmHg 91%
    04:00 +13°C° 0.4 mm 4 mps 745 mmHg 91%
    05:00 +13°C° 0.4 mm 4 mps 745 mmHg 92%
    06:00 +13°C° 0.3 mm 4 mps 745 mmHg 92%
    07:00 +13°C° 0.3 mm 5 mps 744 mmHg 91%
    08:00 +13°C° 0.3 mm 5 mps 744 mmHg 91%
    09:00 +13°C° 0.4 mm 5 mps 744 mmHg 91%
    10:00 +13°C° 0.4 mm 5 mps 744 mmHg 92%
    11:00 +13°C° 0.4 mm 5 mps 744 mmHg 92%
    12:00 +13°C° 0.3 mm 5 mps 744 mmHg 93%
    13:00 +11°C° 0.3 mm 6 mps 743 mmHg 93%
    14:00 +11°C° 0.3 mm 6 mps 743 mmHg 93%
    15:00 +10°C° 0.3 mm 6 mps 743 mmHg 93%
    16:00 +10°C° 0.3 mm 6 mps 743 mmHg 93%
    17:00 +10°C° 0.3 mm 5 mps 742 mmHg 93%
    18:00 +9°C° 0.2 mm 5 mps 742 mmHg 94%
    19:00 +9°C° 0.2 mm 5 mps 742 mmHg 94%
    20:00 +9°C° 0.2 mm 5 mps 742 mmHg 94%
    21:00 +10°C° 0.1 mm 4 mps 742 mmHg 94%
    22:00 +10°C° 0.1 mm 4 mps 742 mmHg 94%
    23:00 +10°C° 0.1 mm 4 mps 742 mmHg 95%

    24 June, Sunday

    Time Temperature Precipitation Wind Pressure Humidity
    00:00 +10°C° 0.5 mm 4 mps 742 mmHg 95%
    01:00 +10°C° 0.5 mm 4 mps 742 mmHg 95%
    02:00 +10°C° 0.5 mm 4 mps 742 mmHg 95%
    03:00 +10°C° 0.6 mm 4 mps 742 mmHg 95%
    04:00 +9°C° 0.6 mm 5 mps 742 mmHg 95%
    05:00 +9°C° 0.6 mm 5 mps 742 mmHg 95%
    06:00 +10°C° 0.2 mm 5 mps 742 mmHg 92%
    07:00 +10°C° 0.2 mm 5 mps 743 mmHg 89%
    08:00 +12°C° 0.2 mm 5 mps 743 mmHg 87%
    09:00 +14°C° 0.1 mm 5 mps 744 mmHg 79%
    10:00 +16°C° 0.1 mm 5 mps 744 mmHg 71%
    11:00 +19°C° 0.1 mm 5 mps 744 mmHg 64%
    12:00 +19°C° 0.3 mm 5 mps 745 mmHg 63%
    13:00 +20°C° 0.3 mm 5 mps 745 mmHg 63%
    14:00 +20°C° 0.3 mm 5 mps 745 mmHg 63%
    15:00 +20°C° 0.1 mm 5 mps 746 mmHg 62%
    16:00 +20°C° 0.1 mm 4 mps 746 mmHg 62%
    17:00 +20°C° 0.1 mm 4 mps 746 mmHg 61%
    18:00 +19°C° 0 mm 3 mps 746 mmHg 68%
    19:00 +17°C° 0 mm 3 mps 747 mmHg 75%
    20:00 +15°C° 0 mm 2 mps 747 mmHg 81%
    21:00 +14°C° 0 mm 2 mps 747 mmHg 85%
    22:00 +14°C° 0 mm 2 mps 748 mmHg 88%
    23:00 +13°C° 0 mm 2 mps 748 mmHg 91%

    25 June, Monday

    Time Temperature Precipitation Wind Pressure Humidity
    00:00 +12°C° 0 mm 2 mps 748 mmHg 92%
    01:00 +12°C° 0 mm 2 mps 748 mmHg 93%
    02:00 +12°C° 0 mm 2 mps 749 mmHg 94%
    03:00 +12°C° 0 mm 2 mps 749 mmHg 94%
    04:00 +12°C° 0 mm 2 mps 749 mmHg 93%
    05:00 +12°C° 0 mm 2 mps 749 mmHg 93%
    06:00 +14°C° 0 mm 2 mps 750 mmHg 86%
    07:00 +15°C° 0 mm 2 mps 750 mmHg 79%
    08:00 +17°C° 0 mm 3 mps 750 mmHg 72%
    09:00 +19°C° 0 mm 3 mps 750 mmHg 66%
    10:00 +20°C° 0 mm 3 mps 751 mmHg 60%
    11:00 +21°C° 0 mm 3 mps 751 mmHg 54%
    12:00 +22°C° 0 mm 3 mps 751 mmHg 53%
    13:00 +22°C° 0 mm 3 mps 751 mmHg 51%
    14:00 +24°C° 0 mm 3 mps 751 mmHg 49%
    15:00 +22°C° 0.1 mm 3 mps 751 mmHg 53%
    16:00 +22°C° 0.1 mm 3 mps 751 mmHg 56%
    17:00 +23°C° 0.1 mm 2 mps 751 mmHg 59%
    18:00 +20°C° 0 mm 2 mps 751 mmHg 64%
    19:00 +20°C° 0 mm 1 mps 751 mmHg 69%
    20:00 +18°C° 0 mm 1 mps 751 mmHg 74%
    21:00 +16°C° 0 mm 1 mps 751 mmHg 77%
    22:00 +15°C° 0 mm 1 mps 751 mmHg 80%
    23:00 +14°C° 0 mm 1 mps 752 mmHg 83%

    26 June, Tuesday

    Time Temperature Precipitation Wind Pressure Humidity
    00:00 +14°C° 0 mm 1 mps 752 mmHg 84%
    01:00 +12°C° 0 mm 0 mps 752 mmHg 85%
    02:00 +12°C° 0 mm 0 mps 752 mmHg 86%
    03:00 +12°C° 0 mm 0 mps 752 mmHg 85%
    04:00 +13°C° 0 mm 0 mps 752 mmHg 85%
    05:00 +13°C° 0 mm 0 mps 752 mmHg 84%
    06:00 +15°C° 0 mm 0 mps 752 mmHg 78%
    07:00 +19°C° 0 mm 1 mps 752 mmHg 71%
    08:00 +21°C° 0 mm 1 mps 753 mmHg 65%
    09:00 +23°C° 0 mm 1 mps 753 mmHg 60%
    10:00 +24°C° 0 mm 1 mps 752 mmHg 54%
    11:00 +24°C° 0 mm 0 mps 752 mmHg 49%
    12:00 +26°C° 0 mm 1 mps 752 mmHg 48%
    13:00 +25°C° 0 mm 1 mps 752 mmHg 48%
    14:00 +25°C° 0 mm 1 mps 752 mmHg 48%
    15:00 +25°C° 0 mm 1 mps 752 mmHg 49%
    16:00 +25°C° 0 mm 1 mps 751 mmHg 50%
    17:00 +25°C° 0 mm 1 mps 751 mmHg 51%
    18:00 +24°C° 0 mm 2 mps 751 mmHg 58%
    19:00 +21°C° 0 mm 2 mps 751 mmHg 64%
    20:00 +19°C° 0 mm 2 mps 751 mmHg 71%
    21:00 +18°C° 0 mm 2 mps 751 mmHg 73%
    22:00 +17°C° 0 mm 2 mps 751 mmHg 76%
    23:00 +16°C° 0 mm 2 mps 751 mmHg 78%
    Show more